Weather History for Sanford, ME

Change the Weather History Date:

Saturday, January 4, 2003

  Actual Average Record
Temperature  
Mean Temperature 25 °F -  
Max Temperature 26 °F 31 °F 50 °F (1998)
Min Temperature 24 °F 14 °F -22 °F (2014)
Degree Days  
Heating Degree Days 40    
Moisture  
Dew Point 19 °F    
Average Humidity 74    
Maximum Humidity 80    
Minimum Humidity 74    
Precipitation  
Precipitation 0.02 in - - ()
Sea Level Pressure  
Sea Level Pressure 29.73 in    
Wind  
Wind Speed 22 mph (NNE)    
Max Wind Speed 28 mph    
Max Gust Speed 40 mph    
Visibility 4 miles    
Events      
Averages and records for this station are not official NWS values.
T = Trace of Precipitation, MM = Missing Value Source: NWS Daily Summary

Daily Weather History Graph

Daily Weather History Graph

Search for Another Location

Airport:

Trip Planner

Search our weather history database for the weather conditions in past years. The results will help you decide how hot, cold, wet, or windy it might be!

Date:

Astronomy

Jan. 04, 2003 Rise Set
Actual Time 7:15 AM EST 4:20 PM EST
Civil Twilight 6:43 AM EST 4:52 PM EST
Nautical Twilight 6:07 AM EST 5:28 PM EST
Astronomical Twilight 5:32 AM EST 6:02 PM EST
Moon 9:00 AM EST (1/4) 6:13 PM EST (1/4)
Length of Visible Light 10h 09m
Length of Day
9h 04m
Waxing Crescent, 4% of the Moon is Illuminated
Jan 4
Waxing Crescent
Jan 10
First Quarter
Jan 18
Full
Jan 25
Last Quarter
Feb 1
New

Hourly Weather History & Observations

Time (EST) Temp. Windchill Dew Point Humidity Pressure Visibility Wind Dir Wind Speed Gust Speed Precip Events Conditions
12:15 AM 24.8 °F 11.1 °F 17.6 °F 74% 29.91 in 1.2 mi NNE 18.4 mph 26.5 mph N/A   Overcast
12:35 AM 24.8 °F 10.3 °F 17.6 °F 74% 29.90 in 1.2 mi NNE 20.7 mph 26.5 mph N/A   Overcast
12:55 AM 24.8 °F 9.6 °F 17.6 °F 74% 29.89 in 1.5 mi NNE 23.0 mph 31.1 mph N/A   Overcast
1:15 AM 24.8 °F 9.3 °F 17.6 °F 74% 29.88 in 1.2 mi NNE 24.2 mph 32.2 mph N/A   Overcast
1:35 AM 24.8 °F 9.3 °F 17.6 °F 74% 29.86 in - NNE 24.2 mph 29.9 mph N/A   Overcast
1:55 AM 24.8 °F 9.0 °F 19.4 °F 80% 29.85 in - NNE 25.3 mph 35.7 mph N/A   Overcast
2:15 AM 24.8 °F 9.6 °F 19.4 °F 80% 29.83 in - NNE 23.0 mph 33.4 mph N/A   Overcast
2:35 AM 24.8 °F 9.3 °F 19.4 °F 80% 29.83 in - NNE 24.2 mph 29.9 mph N/A   Overcast
2:55 AM 26.6 °F 11.4 °F 19.4 °F 74% 29.81 in - NNE 25.3 mph 36.8 mph N/A   Overcast
3:15 AM 26.6 °F 11.4 °F 19.4 °F 74% 29.79 in - NNE 25.3 mph 33.4 mph N/A   Overcast
3:35 AM 26.6 °F 10.8 °F 19.4 °F 74% 29.76 in - NNE 27.6 mph 33.4 mph 0.01 in   Overcast
3:55 AM 26.6 °F 10.8 °F 19.4 °F 74% 29.74 in - NNE 27.6 mph 38.0 mph 0.01 in   Overcast
4:15 AM 26.6 °F 11.4 °F 19.4 °F 74% 29.75 in - NNE 25.3 mph 33.4 mph N/A   Overcast
4:35 AM 26.6 °F 11.4 °F 19.4 °F 74% 29.75 in - NNE 25.3 mph 34.5 mph N/A   Overcast
4:55 AM 26.6 °F 12.0 °F 19.4 °F 74% 29.75 in - NNE 23.0 mph 33.4 mph N/A   Overcast
5:15 AM 26.6 °F 11.7 °F 19.4 °F 74% 29.73 in - NNE 24.2 mph 32.2 mph N/A   Overcast
5:35 AM 26.6 °F 11.7 °F 19.4 °F 74% 29.73 in - NNE 24.2 mph 33.4 mph N/A   Overcast
5:55 AM 26.6 °F 11.1 °F 19.4 °F 74% 29.72 in - NNE 26.5 mph 31.1 mph N/A   Overcast
6:15 AM 26.6 °F 10.8 °F 19.4 °F 74% 29.71 in - NNE 27.6 mph 38.0 mph N/A   Overcast
6:35 AM 26.6 °F 11.4 °F 19.4 °F 74% 29.71 in - NNE 25.3 mph 40.3 mph N/A   Overcast
6:55 AM 26.6 °F 12.0 °F 19.4 °F 74% 29.71 in - NNE 23.0 mph 31.1 mph N/A   Overcast
7:15 AM 26.6 °F 13.1 °F 19.4 °F 74% 29.71 in - North 19.6 mph 31.1 mph N/A   Overcast
7:35 AM 26.6 °F 11.4 °F 19.4 °F 74% 29.72 in - North 25.3 mph 33.4 mph N/A   Overcast
7:55 AM 26.6 °F 12.0 °F 19.4 °F 74% 29.72 in - NNE 23.0 mph 33.4 mph N/A   Overcast
8:15 AM 26.6 °F 12.4 °F 19.4 °F 74% 29.72 in - NNE 21.9 mph 31.1 mph 0.01 in   Overcast
8:35 AM 26.6 °F 11.4 °F 19.4 °F 74% 29.71 in - North 25.3 mph 32.2 mph 0.01 in   Overcast
8:55 AM 26.6 °F 11.7 °F 19.4 °F 74% 29.71 in - North 24.2 mph 31.1 mph 0.01 in   Overcast
9:15 AM 26.6 °F 11.7 °F 19.4 °F 74% 29.70 in - North 24.2 mph 29.9 mph N/A   Overcast
9:35 AM 26.6 °F 12.4 °F 19.4 °F 74% 29.70 in - North 21.9 mph 31.1 mph N/A   Overcast
9:55 AM 26.6 °F 13.1 °F 19.4 °F 74% 29.70 in - North 19.6 mph 31.1 mph N/A   Overcast
10:15 AM 26.6 °F 11.7 °F 19.4 °F 74% 29.69 in - North 24.2 mph 29.9 mph N/A   Overcast
10:35 AM 26.6 °F 12.4 °F 19.4 °F 74% 29.68 in - North 21.9 mph 28.8 mph N/A   Overcast
10:55 AM 26.6 °F 13.8 °F 19.4 °F 74% 29.68 in - North 17.3 mph 27.6 mph N/A   Overcast
11:15 AM 26.6 °F 13.1 °F 19.4 °F 74% 29.67 in - North 19.6 mph 31.1 mph N/A   Overcast
11:35 AM 26.6 °F 13.4 °F 19.4 °F 74% 29.67 in - North 18.4 mph 26.5 mph N/A   Overcast
11:55 AM 26.6 °F 12.7 °F 19.4 °F 74% 29.66 in - North 20.7 mph 27.6 mph N/A   Overcast
12:15 PM 26.6 °F 13.1 °F 19.4 °F 74% 29.65 in - North 19.6 mph 27.6 mph N/A   Mostly Cloudy
12:35 PM 26.6 °F 12.7 °F 19.4 °F 74% 29.64 in 7.0 mi North 20.7 mph 26.5 mph N/A   Scattered Clouds
12:55 PM 26.6 °F 13.4 °F 19.4 °F 74% 29.64 in 9.0 mi North 18.4 mph 26.5 mph N/A   Scattered Clouds
1:15 PM 26.6 °F 13.4 °F 19.4 °F 74% 29.65 in 8.0 mi North 18.4 mph 29.9 mph N/A   Mostly Cloudy
1:35 PM 26.6 °F 12.7 °F 19.4 °F 74% 29.65 in 9.0 mi North 20.7 mph 26.5 mph N/A   Overcast
1:55 PM 26.6 °F 12.7 °F 19.4 °F 74% 29.66 in 8.0 mi North 20.7 mph 29.9 mph N/A   Overcast
2:15 PM 26.6 °F 13.8 °F 19.4 °F 74% 29.67 in 9.0 mi North 17.3 mph 23.0 mph N/A   Overcast
2:35 PM 26.6 °F 12.7 °F 19.4 °F 74% 29.68 in 5.0 mi North 20.7 mph 25.3 mph N/A   Overcast
2:55 PM 26.6 °F 13.1 °F 19.4 °F 74% 29.69 in 5.0 mi North 19.6 mph 24.2 mph N/A   Overcast
3:15 PM 26.6 °F 14.3 °F 19.4 °F 74% 29.69 in 3.0 mi North 16.1 mph 21.9 mph N/A   Overcast
3:35 PM 26.6 °F 13.1 °F 19.4 °F 74% 29.70 in 2.5 mi North 19.6 mph 25.3 mph N/A   Overcast
3:55 PM 26.6 °F 12.4 °F 19.4 °F 74% 29.71 in 2.0 mi North 21.9 mph 29.9 mph N/A   Overcast
4:15 PM 26.6 °F 15.7 °F 19.4 °F 74% 29.72 in 3.0 mi North 12.7 mph 28.8 mph N/A   Overcast
4:35 PM 26.6 °F 14.7 °F 19.4 °F 74% 29.73 in 2.5 mi North 15.0 mph 24.2 mph N/A   Overcast
4:55 PM 26.6 °F 12.7 °F 19.4 °F 74% 29.73 in 3.0 mi North 20.7 mph 29.9 mph N/A   Overcast
5:15 PM 26.6 °F 13.4 °F 19.4 °F 74% 29.74 in 4.0 mi North 18.4 mph 28.8 mph N/A   Overcast
5:35 PM 26.6 °F 14.3 °F 19.4 °F 74% 29.75 in 5.0 mi North 16.1 mph 20.7 mph N/A   Overcast
5:55 PM 26.6 °F 14.7 °F 19.4 °F 74% 29.75 in 6.0 mi North 15.0 mph 21.9 mph N/A   Overcast
6:15 PM 26.6 °F 15.2 °F 19.4 °F 74% 29.76 in 5.0 mi North 13.8 mph 21.9 mph N/A   Overcast
6:35 PM 26.6 °F 14.7 °F 19.4 °F 74% 29.77 in 4.0 mi North 15.0 mph 24.2 mph N/A   Mostly Cloudy
6:55 PM 26.6 °F 14.3 °F 19.4 °F 74% 29.78 in 3.0 mi North 16.1 mph 21.9 mph N/A   Overcast
7:15 PM 26.6 °F 14.3 °F 19.4 °F 74% 29.78 in 5.0 mi North 16.1 mph 20.7 mph N/A   Overcast
7:35 PM 26.6 °F 14.3 °F 19.4 °F 74% 29.79 in 5.0 mi North 16.1 mph 21.9 mph N/A   Overcast
7:55 PM 26.6 °F 16.2 °F 19.4 °F 74% 29.80 in 5.0 mi North 11.5 mph 21.9 mph N/A   Overcast
8:35 PM 26.6 °F 17.5 °F 19.4 °F 74% 29.81 in 2.5 mi NNW 9.2 mph - N/A   Overcast
8:55 PM 26.6 °F 16.2 °F 19.4 °F 74% 29.81 in 3.0 mi NNW 11.5 mph - N/A   Overcast
9:15 PM 26.6 °F 16.2 °F 19.4 °F 74% 29.82 in 5.0 mi NNW 11.5 mph - N/A   Overcast
9:35 PM 26.6 °F 17.5 °F 19.4 °F 74% 29.82 in 9.0 mi NNW 9.2 mph 16.1 mph N/A   Overcast
9:55 PM 26.6 °F 16.2 °F 19.4 °F 74% 29.82 in 10.0 mi NNW 11.5 mph - N/A   Overcast
10:15 PM 26.6 °F 16.8 °F 19.4 °F 74% 29.82 in 10.0 mi NNW 10.4 mph - N/A   Overcast
10:35 PM 26.6 °F 17.5 °F 19.4 °F 74% 29.83 in 10.0 mi NNW 9.2 mph 16.1 mph N/A   Scattered Clouds
10:55 PM 26.6 °F 19.1 °F 17.6 °F 69% 29.83 in 10.0 mi NNW 6.9 mph - N/A   Clear
11:15 PM 26.6 °F 18.2 °F 17.6 °F 69% 29.83 in 10.0 mi NW 8.1 mph - N/A   Mostly Cloudy
11:35 PM 26.6 °F 20.0 °F 17.6 °F 69% 29.84 in 10.0 mi NW 5.8 mph - N/A   Scattered Clouds
11:55 PM 24.8 °F 16.9 °F 17.6 °F 74% 29.84 in 10.0 mi NW 6.9 mph - N/A   Clear